Regional Weather Roundup
Issued by NWS

Home | Current Version | Previous Version | Text Only | Print | Product List | Glossary On
Versions: 1 2 3 4 5 6 7 8 9 10 11 12 13 14 15 16 17 18 19 20 21 22 23 24 25 26 27 28 29 30 31 32 33 34 35 36 37 38 39 40 41 42 43 44 45 46 47 48 49 50
000
ASUS43 KLMK 191410
RWRKY
KENTUCKY REGIONAL WEATHER ROUNDUP
NATIONAL WEATHER SERVICE LOUISVILLE KY
1000 AM EDT FRI SEP 19 2014

NOTE "FAIR" INDICATES FEW OR NO CLOUDS BELOW 12,000 FEET
WITH NO SIGNIFICANT WEATHER AND/OR OBSTRUCTIONS TO VISIBILITY.

KYZ001>023-026-027-061>063-070>075-191500-
WESTERN AND SOUTH CENTRAL KENTUCKY

CITY           SKY/WX    TMP DP  RH WIND       PRES   REMARKS
PADUCAH        SUNNY     68  58  70 E5        30.08R
HENDERSON      SUNNY     63  52  67 E7        30.11S
OWENSBORO      SUNNY     65  53  65 E7        30.11S
HOPKINSVILLE   SUNNY     64  60  85 E7        30.08R
BOWLING GREEN  SUNNY     64  56  75 E6        30.10S
GLASGOW        SUNNY     64  55  74 E7        30.11S
$$

KYZ024-025-028>034-038-045-046-053-191500-
NORTH CENTRAL KENTUCKY

CITY           SKY/WX    TMP DP  RH WIND       PRES   REMARKS
LOUISVILLE/SDF MOSUNNY   65  49  56 E12       30.15R
LOUISVILLE/LOU SUNNY     64  49  57 E8        30.15S
FORT KNOX      SUNNY     61  51  70 NE8       30.13R
$$

KYZ035>037-039>044-047>052-055>060-089>105-191500-
NORTHEAST KENTUCKY

CITY           SKY/WX    TMP DP  RH WIND       PRES   REMARKS
LEXINGTON      SUNNY     64  49  57 E9        30.16R
COVINGTON      MOSUNNY   61  51  70 NE8       30.19R
FRANKFORT      SUNNY     61  50  67 E9        30.15S
$$

KYZ054-064>069-076>088-106>120-191500-
SOUTHEAST KENTUCKY

CITY           SKY/WX    TMP DP  RH WIND       PRES   REMARKS
JACKSON        SUNNY     60  52  74 CALM      30.15R
LONDON         SUNNY     64  55  72 E5        30.13S
SOMERSET       NOT AVBL
MIDDLESBORO    CLOUDY    55  55 100 CALM      30.14S FOG
MONTICELLO     SUNNY     65  57  75 CALM      30.14R
$$



USA.gov is the U.S. government's official web portal to all federal, state and local government web resources and services.